CW0498 Weather Reports


time (UTC)temp
C
wind
direction
speed
KPH
gust
KPH
rain 1hr
cm
rain 24hr
cm
rain mn
cm
humidity
%
barometer
mb
20260504081537 6 0 0.0 0.0 0.00 0.00 0.00 92 1018.1
20260504044545 8 0 0.0 0.0 0.00 0.00 0.00 85 1019.2
20260504043041 8 0 0.0 0.0 0.00 0.00 0.00 85 1019.1
20260504041545 8 0 0.0 0.0 0.00 0.00 0.00 85 1019.2
20260504040041 9 0 0.0 0.0 0.00 0.00 0.00 83 1019.2
20260504034537 9 0 0.0 0.0 0.00 0.00 0.00 81 1019.2
20260504033051 10 0 0.0 0.0 0.00 0.00 0.00 81 1019.3
20260504031548 10 0 0.0 0.0 0.00 0.00 0.00 79 1019.3
20260504030049 10 0 0.0 0.0 0.00 0.00 0.00 77 1019.1
20260504024553 11 0 0.0 0.0 0.00 0.00 0.00 76 1019.2
20260504023050 11 0 0.0 0.0 0.00 0.00 0.00 74 1019.0
20260504021551 11 0 0.0 0.0 0.00 0.00 0.00 73 1018.9
20260504020048 12 0 0.0 0.0 0.00 0.00 0.00 71 1018.7
20260504014539 12 0 0.0 0.0 0.00 0.00 0.00 70 1018.5
20260504013046 12 0 0.0 0.0 0.00 0.00 0.00 69 1018.5
20260504011541 13 0 0.0 0.0 0.00 0.00 0.00 66 1018.2
20260504010037 13 0 0.0 0.0 0.00 0.00 0.00 63 1018.1
20260504004559 14 0 0.0 0.0 0.00 0.00 0.00 59 1018.0
20260504003043 15 0 0.0 0.0 0.00 0.00 0.00 57 1017.7
20260504001543 16 0 0.0 0.0 0.00 0.00 0.00 53 1017.7
20260504000040 16 0 0.0 0.0 0.00 0.00 0.00 50 1017.6
20260503234549 17 0 0.0 1.6 0.00 0.00 0.00 48 1017.7
20260503233044 18 0 0.0 1.6 0.00 0.00 0.00 43 1017.7
20260503231552 18 0 0.0 3.2 0.00 0.00 0.00 38 1017.8
20260503230044 19 84 0.0 4.8 0.00 0.00 0.00 37 1017.8
20260503224541 21 0 0.0 1.6 0.00 0.00 0.00 37 1017.9
20260503223051 20 297 0.0 1.6 0.00 0.00 0.00 42 1017.8
20260503221538 20 59 0.0 1.6 0.00 0.00 0.00 43 1017.8
20260503220049 20 61 0.0 3.2 0.00 0.00 0.00 43 1017.8
20260503214543 19 0 1.6 4.8 0.00 0.00 0.00 42 1018.0
20260503213045 20 0 0.0 6.4 0.00 0.00 0.00 41 1018.1
20260503211544 20 335 0.0 4.8 0.00 0.00 0.00 41 1018.2
20260503210041 20 311 1.6 6.4 0.00 0.00 0.00 42 1018.2
20260503204538 21 54 1.6 6.4 0.00 0.00 0.00 40 1018.3
20260503203047 21 304 0.0 4.8 0.00 0.00 0.00 39 1018.5
20260503201538 21 142 0.0 6.4 0.00 0.00 0.00 35 1018.8
20260503200037 21 250 0.0 8.0 0.00 0.00 0.00 42 1019.0
20260503194542 21 296 0.0 6.4 0.00 0.00 0.00 42 1019.3
20260503193049 21 0 0.0 6.4 0.00 0.00 0.00 43 1019.5
20260503191540 21 0 0.0 6.4 0.00 0.00 0.00 44 1019.8
20260503190043 20 196 0.0 8.0 0.00 0.00 0.00 46 1020.0
20260503184547 20 74 1.6 4.8 0.00 0.00 0.00 43 1020.1
20260503183037 20 281 0.0 3.2 0.00 0.00 0.00 44 1020.3
20260503181543 19 323 3.2 6.4 0.00 0.00 0.00 45 1020.5
20260503180043 18 70 0.0 4.8 0.00 0.00 0.00 48 1020.3
20260503174558 18 13 0.0 3.2 0.00 0.00 0.00 49 1020.4
20260503173040 17 0 0.0 3.2 0.00 0.00 0.00 50 1020.6
20260503171537 17 333 1.6 6.4 0.00 0.00 0.00 47 1021.0